This demonstration page uses our WeatherBlox Daily Observations layout. Learn more.

Left ArrowRight Arrow

39.95238, -75.16362

Hourly Observations for October 6, 2022

Temp ( °F °C ) Dew Point ( °F °C ) Humidity (%) Winds ( mph kmh ) Pressure ( in mb ) Visibility ( mi km ) Precip ( " mm )
12:54 am 00:54 Mostly Clear 60 15.6 53 11.7 78 78 NNE 3 6 29.96 1015 10 16 0.00 0.00
1:54 am 01:54 Mostly Clear 57 13.9 53 11.7 87 87 NNW 3 6 29.96 1015 10 16 0.00 0.00
2:54 am 02:54 Mostly Clear 55 12.8 51 10.6 86 86 NNW 6 9 29.96 1015 10 16 0.00 0.00
3:54 am 03:54 Clear 55 12.8 50 10 83 83 NNW 7 11 29.95 1014 10 16 0.00 0.00
4:54 am 04:54 Clear 56 13.3 49 9.4 77 77 NNW 7 11 29.96 1014 10 16 0.00 0.00
5:54 am 05:54 Clear 55 12.8 48 8.9 77 77 Calm 29.97 1015 10 16 0.00 0.00
6:54 am 06:54 Mostly Clear 54 12.2 48 8.9 80 80 NE 3 6 29.98 1015 10 16 0.00 0.00
7:54 am 07:54 Mostly Sunny 57 13.9 47 8.3 69 69 NW 5 7 29.99 1016 10 16 0.00 0.00
8:54 am 08:54 Partly Cloudy 60 15.6 48 8.9 64 64 Calm 30.01 1016 10 16 0.00 0.00
9:54 am 09:54 Partly Cloudy 64 17.8 49 9.4 58 58 VRB 3 6 30.01 1016 10 16 0.00 0.00
10:54 am 10:54 Partly Cloudy 67 19.4 47 8.3 49 49 NNE 3 6 30.01 1016 10 16 0.00 0.00
11:54 am 11:54 Partly Cloudy 69 20.6 48 8.9 47 47 S 6 9 30.00 1016 10 16 0.00 0.00
12:54 pm 12:54 Partly Cloudy 72 22.2 47 8.3 41 41 Calm 29.99 1016 10 16 0.00 0.00
1:54 pm 13:54 Partly Cloudy 74 23.3 48 8.9 40 40 SW 8 13 29.97 1015 10 16 0.00 0.00
2:54 pm 14:54 Partly Cloudy 75 23.9 49 9.4 40 40 WSW 7 11 29.96 1015 10 16 0.00 0.00
3:54 pm 15:54 Mostly Sunny 76 24.4 51 10.6 42 42 SW 9 15 29.96 1014 10 16 0.00 0.00
4:54 pm 16:54 Mostly Sunny 76 24.4 50 10 40 40 SW 6 9 29.95 1014 10 16 0.00 0.00
5:54 pm 17:54 Partly Cloudy 75 23.9 51 10.6 43 43 SW 8 13 29.96 1015 10 16 0.00 0.00
6:54 pm 18:54 Partly Cloudy 73 22.8 53 11.7 50 50 SW 7 11 29.96 1015 10 16 0.00 0.00
7:54 pm 19:54 Mostly Cloudy 69 20.6 54 12.2 59 59 SSW 5 7 29.97 1015 10 16 0.00 0.00
8:54 pm 20:54 Mostly Cloudy 66 18.9 55 12.8 68 68 SW 6 9 29.98 1015 10 16 0.00 0.00
9:54 pm 21:54 Mostly Cloudy 66 18.9 55 12.8 68 68 SW 7 11 29.98 1015 10 16 0.00 0.00
10:54 pm 22:54 Mostly Cloudy 66 18.9 55 12.8 68 68 SW 9 15 29.98 1015 10 16 0.00 0.00
11:54 pm 23:54 Partly Cloudy 63 17.2 55 12.8 75 75 SW 8 13 29.99 1016 10 16 0.00 0.00

Powered by AerisWeather